Location: Unspecified
(0.0000°N, 0.0000°E)
Time: 03:40:25
(UTC+00:00)

Vanguard 1 Rocket - Visible Passes

Search period start: 17 October 2017 00:00
Search period end: 27 October 2017 00:00
Orbit: 655 x 4222 km, 34.3° (Epoch: 16 October)

Date Brightness Start Highest point End Pass type
(mag) Time Alt. Az. Time Alt. Az. Time Alt. Az.
17 Oct 10.0 02:16:07 10° SW 02:37:09 51° SSE 02:48:27 10° ENE visible
17 Oct 8.9 04:50:42 10° WSW 05:05:42 55° NW 05:13:21 10° NE visible
17 Oct 11.5 19:46:29 10° WSW 20:01:12 26° SSW 20:20:53 10° SE visible
17 Oct 11.5 22:25:01 10° SW 22:43:25 23° S 23:00:10 10° SE visible
18 Oct 10.7 01:00:31 10° SW 01:22:24 39° SSE 01:35:57 10° E visible
18 Oct 9.1 03:35:19 12° SW 03:53:50 89° NNW 04:03:15 10° NE visible
18 Oct 11.2 18:32:02 10° WSW 18:44:43 32° SSW 19:04:37 10° SE visible
18 Oct 11.6 21:08:10 10° SW 21:24:31 22° S 21:42:21 10° SE visible
18 Oct 11.1 23:44:51 10° SW 00:14:26 24° SE 00:21:53 10° ESE visible
19 Oct 9.7 02:18:31 10° SW 02:40:44 64° SSE 02:52:18 10° ENE visible
19 Oct 9.2 04:54:24 10° WSW 05:08:38 41° NW 05:16:19 10° NNE visible
19 Oct 11.6 19:51:57 10° SW 20:06:08 23° S 20:24:24 10° SE visible
19 Oct 11.4 22:29:03 10° SW 22:48:33 25° SSE 22:54:30 23° SSE visible
20 Oct 10.4 01:02:56 10° SW 01:27:21 47° SE 01:40:16 10° E visible
20 Oct 9.1 03:44:52 26° WSW 03:56:52 71° NW 04:06:32 10° NE visible
20 Oct 11.4 18:37:03 10° WSW 18:49:11 26° SSW 19:07:16 10° SE visible
20 Oct 11.6 21:13:10 10° SW 21:29:54 22° S 21:45:57 12° SE visible
20 Oct 11.1 23:47:36 10° SW 00:22:12 21° ESE 00:26:47 10° E visible
21 Oct 9.5 02:39:40 61° SW 02:44:03 80° SE 02:55:54 10° ENE visible
21 Oct 9.6 04:58:35 10° W 05:11:32 31° NW 05:19:05 10° NNE visible
21 Oct 11.6 19:57:26 10° SW 20:11:19 21° S 20:28:35 10° SE visible
21 Oct 11.3 22:32:30 10° SW 22:53:22 29° SSE 22:54:45 29° SSE visible
22 Oct 10.2 01:05:21 10° SW 01:34:10 51° ESE 01:44:16 10° ENE visible
22 Oct 9.3 03:51:36 34° W 03:59:47 56° NW 04:09:37 10° NE visible
22 Oct 11.5 18:42:24 10° SW 18:53:56 22° S 19:10:16 10° SE visible
22 Oct 11.5 21:17:31 10° SW 21:35:09 23° SSE 21:46:31 18° SE visible
22 Oct 11.1 23:50:12 10° SW 00:28:24 18° E 00:31:19 10° E visible
23 Oct 9.5 02:45:51 80° W 02:47:08 85° NW 02:59:16 10° NE visible
23 Oct 9.9 05:03:24 10° W 05:14:32 23° NW 05:21:38 10° N visible
23 Oct 11.6 20:02:37 10° SW 20:16:37 20° S 20:33:34 10° SE visible
23 Oct 11.2 22:35:33 10° SW 22:55:33 33° SSE 22:55:33 33° SSE visible
24 Oct 10.2 01:07:50 10° SW 01:39:53 47° ENE 01:47:58 10° ENE visible
24 Oct 9.6 03:57:17 36° W 04:02:37 44° NW 04:12:34 10° NNE visible
24 Oct 11.5 18:47:54 10° SW 18:58:55 19° S 19:13:49 10° SE visible
24 Oct 11.4 21:21:17 10° SSW 21:40:06 26° SSE 21:47:29 23° SE visible
24 Oct 11.2 23:52:43 10° SW 00:33:45 15° ENE 00:35:29 10° ENE visible
25 Oct 9.5 02:51:09 68° NNW 02:51:09 68° NNW 03:02:27 10° NE visible
25 Oct 10.1 05:09:00 10° WNW 05:17:44 17° NW 05:23:53 10° N visible
25 Oct 11.6 20:07:15 10° SSW 20:21:53 21° SSE 20:39:14 10° SE visible
25 Oct 11.1 22:38:20 10° SW 22:56:40 37° S 22:56:40 37° S visible
26 Oct 10.3 01:10:27 10° SW 01:44:52 40° ENE 01:51:26 10° NE visible
26 Oct 9.9 04:02:14 32° WNW 04:05:31 35° NW 04:15:21 10° NNE visible
26 Oct 11.6 18:53:17 10° SW 19:04:04 18° S 19:18:09 10° SE visible
26 Oct 11.2 21:24:34 10° SSW 21:44:40 30° SSE 21:48:41 29° SE visible
